ISS - Orbit

View from above orbital plane
View from above orbital plane
View from above satellite
View from above satellite

Ground track
Ground track

The orbit data is extracted from the following two-line orbital elements,

1 25544U 98067A   13145.82987131  .00011524  00000-0  20571-3 0  8779
2 25544 051.6498 219.1973 0009684 357.2094 108.7880 15.50501366831235
Epoch (UTC): 25 May 2013 19:55:00
Eccentricity: 0.0009684
inclination: 51.6498°
perigee height: 408 km
apogee height: 422 km
right ascension of ascending node: 219.1973°
argument of perigee: 357.2094°
revolutions per day: 15.50501366
mean anomaly at epoch: 108.7880°
orbit number at epoch: 83123

The dashed part of the orbit path shows where the satellite is in the earth's shadow,  

Developed and maintained by Chris Peat, Heavens-Above GmbH. Please read the updated FAQ before sending e-mail. Imprint. DLR